Glasgow, MT

1:14 AM MDT on June 25, 2017 (GMT -0600)
Wokal-Glasgow International

Weather History for KGGW - May, 2012

Change the Weather History Date:

Wednesday, May 16, 2012

  Actual Average Record
Temperature  
Mean Temperature 69 °F 55 °F  
Max Temperature 86 °F 68 °F 97 °F (1901)
Min Temperature 52 °F 42 °F 26 °F (1923)
Degree Days  
Heating Degree Days 0 10  
Month to date heating degree days 181 202  
Since 1 July heating degree days 6908 8209  
Cooling Degree Days 4 0  
Month to date cooling degree days 4 0  
Year to date cooling degree days 7 1  
Growing Degree Days 19 (Base 50)    
Moisture  
Dew Point 39 °F    
Average Humidity 37    
Maximum Humidity 54    
Minimum Humidity 20    
Precipitation  
Precipitation 0.00 in 0.06 in 0.72 in (1955)
Month to date precipitation 1.14 0.83  
Year to date precipitation 3.79 2.73  
Snow  
Snow 0.00 in 0.00 in T in (1994)
Month to date snowfall 0.0 0.8  
Since 1 July snowfall 25.7 34.4  
Snow Depth 0.00 in    
Sea Level Pressure  
Sea Level Pressure 29.68 in    
Wind  
Wind Speed 8 mph (SSE)    
Max Wind Speed 17 mph    
Max Gust Speed 23 mph    
Visibility 10 miles    
Events      
T = Trace of Precipitation, MM = Missing Value Source: NWS Daily Summary

Daily Weather History Graph

Daily Weather History Graph

Search for Another Location

Airport or City:

Trip Planner

Search our weather history database for the weather conditions in past years. The results will help you decide how hot, cold, wet, or windy it might be!

Date:

Astronomy

May. 16, 2012 Rise Set
Actual Time 5:25 AM MDT 8:41 PM MDT
Civil Twilight 4:47 AM MDT 9:19 PM MDT
Nautical Twilight 3:58 AM MDT 10:08 PM MDT
Astronomical Twilight 2:55 AM MDT 11:12 PM MDT
Moon 3:13 AM MDT (5/16) 4:45 PM MDT (5/16)
Length of Visible Light 16h 31m
Length of Day
15h 16m
Waning Crescent, 15% of the Moon is Illuminated
May 16
Waning Crescent
May 20
New
May 28
First Quarter
Jun 4
Full
Jun 11
Last Quarter

Hourly Weather History & Observations

Time (MDT) Temp. Dew Point Humidity Pressure Visibility Wind Dir Wind Speed Gust Speed Precip Events Conditions
12:53 AM 55.9 °F 33.1 °F 42% 29.85 in 10.0 mi ESE 13.8 mph - N/A   Clear
1:53 AM 55.9 °F 33.1 °F 42% 29.82 in 10.0 mi ESE 15.0 mph - N/A   Clear
2:53 AM 53.1 °F 34.0 °F 48% 29.80 in 10.0 mi ESE 13.8 mph - N/A   Clear
3:53 AM 54.0 °F 34.0 °F 47% 29.78 in 10.0 mi ESE 15.0 mph - N/A   Clear
4:53 AM 53.1 °F 34.0 °F 48% 29.77 in 10.0 mi East 12.7 mph - N/A   Clear
5:53 AM 52.0 °F 35.1 °F 53% 29.76 in 10.0 mi East 11.5 mph - N/A   Clear
6:53 AM 55.0 °F 35.1 °F 47% 29.74 in 10.0 mi ESE 17.3 mph - N/A   Clear
7:53 AM 57.9 °F 36.0 °F 44% 29.74 in 10.0 mi ESE 15.0 mph - N/A   Clear
8:53 AM 61.0 °F 35.1 °F 38% 29.73 in 10.0 mi SE 11.5 mph - N/A   Clear
9:53 AM 66.9 °F 39.0 °F 36% 29.71 in 10.0 mi SE 5.8 mph - N/A   Clear
10:53 AM 72.0 °F 41.0 °F 33% 29.70 in 10.0 mi WSW 4.6 mph - N/A   Clear
11:53 AM 77.0 °F 43.0 °F 30% 29.69 in 10.0 mi WNW 5.8 mph - N/A   Clear
12:53 PM 78.1 °F 43.0 °F 29% 29.68 in 10.0 mi West 8.1 mph - N/A   Clear
1:53 PM 82.0 °F 44.1 °F 26% 29.67 in 10.0 mi West 5.8 mph - N/A   Clear
2:53 PM 84.0 °F 44.1 °F 25% 29.65 in 10.0 mi WSW 4.6 mph - N/A   Clear
3:53 PM 82.0 °F 45.0 °F 27% 29.64 in 10.0 mi WNW 5.8 mph - N/A   Clear
4:53 PM 82.9 °F 45.0 °F 26% 29.62 in 10.0 mi West 3.5 mph - N/A   Clear
5:53 PM 84.0 °F 43.0 °F 24% 29.61 in 10.0 mi SSE 3.5 mph - N/A   Clear
6:53 PM 82.0 °F 44.1 °F 26% 29.60 in 10.0 mi West 4.6 mph - N/A   Clear
7:53 PM 81.0 °F 41.0 °F 24% 29.60 in 10.0 mi NW 3.5 mph - N/A   Clear
8:53 PM 77.0 °F 37.0 °F 24% 29.61 in 10.0 mi West 4.6 mph - N/A   Clear
9:53 PM 77.0 °F 33.1 °F 20% 29.59 in 10.0 mi Calm Calm - N/A   Clear
10:53 PM 63.0 °F 42.1 °F 46% 29.59 in 10.0 mi SE 4.6 mph - N/A   Clear
11:53 PM 62.1 °F 43.0 °F 50% 29.58 in 10.0 mi SE 5.8 mph - N/A   Clear